Flag for Greece Weather past 2 weeks in Santorini, Greece

Now
64 °F

Passing clouds.


Feels Like: 64 °F
Forecast: 61 / 67 °F
Wind: 15 mph from Southeast

Location: Santorini Island

Current Time: Apr 26, 2015 at 9:42:47 AM

Latest Report: Apr 26, 2015 at 8:50 AM


Visibility: N/A

Pressure: 30.01 "Hg

Humidity: 73%

Dew point: 55 °F

Location of SantoriniLocation

Historic Weather in Santorini — Graph

°F

Santorini temperature yesterday

Maximum temperature yesterday: 68 °F (at 1:20 PM)
Minimum temperature yesterday: 57 °F (at 12:50 AM)
Average temperature yesterday: 63 °F

Past Weeks' High & Low Weather Summary

 TemperatureHumidityPressure
High75 °F (Apr 18, 2:50 PM)88% (Apr 17, 3:50 AM)31.25 "Hg (Apr 17, 3:50 AM)
Low48 °F (Apr 24, 3:20 AM)24% (Apr 18, 3:50 PM)29.83 "Hg (Apr 19, 5:50 PM)
Average62 °F60%30.09 "Hg
* Reported Apr 11 8:20 AM — Apr 26 8:20 AM, Santorini, Weather by CustomWeather, © 2015

Note: Actual official high and low records may vary slightly from our data, if they occured in-between our weather recording intervals... More about our weather records

Advertising

Santorini weather history for previous 24 hours

 ConditionsComfort  
Time TempWeatherWind HumidityBarometerVisibility
8:20 AM
Sun, Apr 26
63 °FPassing clouds.15 mph77%30.01 "HgN/A
7:50 AM63 °FPassing clouds.14 mph77%29.98 "HgN/A
7:20 AM61 °FPassing clouds.16 mph83%29.98 "HgN/A
6:50 AM61 °FPassing clouds.16 mph83%29.98 "HgN/A
6:20 AM61 °FPassing clouds.15 mph83%29.98 "HgN/A
5:50 AM61 °FPassing clouds.17 mph83%29.98 "HgN/A
5:20 AM61 °FPassing clouds.16 mph88%29.98 "HgN/A
4:50 AM61 °FPassing clouds.16 mph88%29.98 "HgN/A
4:20 AM61 °FCool.14 mph88%29.98 "HgN/A
3:50 AM63 °FMild.14 mph77%30.01 "HgN/A
3:20 AM61 °FCool.17 mph83%30.01 "HgN/A
2:50 AM61 °FCool.15 mph83%30.01 "HgN/A
2:20 AM61 °FCool.15 mph83%30.01 "HgN/A
1:50 AM63 °FLight rain. Overcast.15 mph73%30.01 "HgN/A
1:20 AM63 °FMild.17 mph77%30.01 "HgN/A
12:50 AM61 °FCool.21 mph83%30.01 "HgN/A
11:50 PM
Sat, Apr 25
61 °FPassing clouds.23 mph83%30.01 "HgN/A
11:20 PM63 °FPassing clouds.22 mph83%30.01 "HgN/A
10:50 PM63 °FPassing clouds.20 mph83%30.04 "HgN/A
10:20 PM63 °FPassing clouds.16 mph83%30.04 "HgN/A
9:50 PM63 °FPassing clouds.15 mph83%30.01 "HgN/A
9:20 PM63 °FPassing clouds.15 mph83%30.01 "HgN/A
8:50 PM63 °FPartly sunny.16 mph83%30.01 "HgN/A
8:20 PM63 °FPartly sunny.15 mph83%30.01 "HgN/A
7:50 PM63 °FPartly sunny.13 mph83%30.01 "HgN/A
7:20 PM63 °FPartly sunny.21 mph83%30.01 "HgN/A
6:50 PM64 °FPartly sunny.22 mph78%30.01 "HgN/A
6:20 PM64 °FPartly sunny.22 mph78%30.01 "HgN/A
5:50 PM64 °FPartly sunny.22 mph78%30.01 "HgN/A
5:20 PM66 °FScattered clouds.18 mph73%30.01 "HgN/A
4:50 PM66 °FPassing clouds.18 mph73%30.04 "HgN/A
4:20 PM66 °FPassing clouds.16 mph78%30.04 "HgN/A
3:50 PM66 °FPassing clouds.12 mph78%30.04 "HgN/A
3:20 PM68 °FPassing clouds.10 mph64%30.07 "HgN/A
2:50 PM68 °FPassing clouds.10 mph64%30.07 "HgN/A
2:20 PM68 °FScattered clouds.10 mph64%30.07 "HgN/A
1:50 PM68 °FScattered clouds.12 mph69%30.09 "HgN/A
1:20 PM68 °FPartly sunny.10 mph64%30.09 "HgN/A
12:50 PM66 °FPartly sunny.12 mph64%30.09 "HgN/A
12:20 PM66 °FPartly sunny.12 mph64%30.09 "HgN/A
11:50 AM66 °FPartly sunny.12 mph68%30.09 "HgN/A
11:20 AM64 °FPartly sunny.10 mph78%30.09 "HgN/A
10:50 AM64 °FPartly sunny.9 mph78%30.12 "HgN/A
10:20 AM64 °FBroken clouds.7 mph73%30.09 "HgN/A
9:50 AM63 °FBroken clouds.8 mph73%30.09 "HgN/A
9:20 AM63 °FBroken clouds.8 mph77%30.09 "HgN/A
Weather by CustomWeather, © 2015

See weather overviewHow to use our weather pages